Theta_e
330 331 333 335 337 338 336 340 341 342 346 347 349 350 352 354 353 350 350 352 350 350 350 352 358 357 358 361 361 361 360 358 358
328 330 333 335 338 339 337 341 342 340 342 346 348 348 352 352 353 352 351 353 353 350 353 352 355 357 358 360 361 362 362 358 359
329 331 333 335 338 340 342 343 344 345 347 348 349 348 351 351 353 354 355 354 352 352 353 354 354 357 358 358 360 360 361 358 358
331 332 334 335 338 341 343 342 344 345 347 348 348 349 350 351 351 353 354 354 355 355 356 355 356 359 358 358 358 360 361 360 359
331 334 335 336 337 340 341 341 344 345 347 349 350 351 351 351 353 353 352 353 354 356 356 358 358 358 357 358 358 360 359 357 356
332 335 336 337 338 339 340 342 344 344 345 346 349 352 352 352 352 353 353 354 356 356 358 358 358 358 357 356 355 355 358 358 358
332 335 337 338 338 340 341 342 343 344 344 346 347 348 350 350 352 353 351 355 356 356 358 357 357 357 358 358 356 355 353 354 356
331 333 335 338 338 340 341 342 343 345 345 347 347 349 350 350 353 354 353 352 351 353 355 356 358 357 356 356 355 352 354 352 352
331 333 335 337 339 340 340 341 342 344 345 346 348 348 348 350 351 350 346 351 351 351 351 352 356 356 356 355 353 339 336 344 350
331 333 335 336 338 340 341 341 343 343 345 348 348 349 350 349 349 349 349 349 349 349 350 351 350 352 353 354 355 334 332 337 350
334 336 337 339 341 342 343 343 343 346 347 348 349 349 350 350 349 348 349 348 347 348 349 349 349 350 350 351 354 334 330 334 349
337 339 341 342 344 347 348 348 347 348 346 347 347 348 349 349 349 348 348 348 348 349 349 348 349 349 349 347 348 330 327 333 346
337 340 341 342 345 347 348 349 350 349 348 348 348 349 349 350 350 349 348 348 348 348 347 345 345 345 346 339 346 331 326 330 348
340 341 341 345 345 344 347 348 349 347 348 347 350 350 349 350 350 350 350 349 349 348 348 347 346 346 349 351 348 349 324 321 351
339 340 342 344 344 344 346 348 348 347 346 349 349 350 350 350 350 348 347 347 348 348 346 342 342 341 343 345 350 329 322 320 321
339 341 342 344 345 346 345 347 348 347 348 348 347 347 348 348 345 345 347 345 344 342 344 343 341 340 340 343 347 345 322 320 319
338 340 341 343 343 340 337 338 341 345 344 345 345 344 345 344 342 341 344 341 338 338 338 337 338 334 334 337 338 342 344 338 334
338 340 339 339 337 336 338 339 338 338 341 344 343 343 341 339 339 338 338 337 334 330 332 325 329 329 329 326 327 331 315 314 327
338 336 335 335 336 335 334 338 340 342 344 344 343 340 338 337 338 338 337 335 334 307 307 304 302 300 309 326 313 305 302 300 300
330 335 333 333 333 334 336 338 339 341 341 341 339 338 338 338 331 336 331 334 332 331 321 303 300 299 299 298 302 298 297 296 298
Wind_Speed
13 18 18 18 18 16 13 16 16 13 14 14 13 13 13 11 10 7 7 7 6 6 6 5 5 7 6 7 7 6 5 4 4
11 16 18 20 16 16 14 17 17 15 12 12 13 14 12 12 10 10 8 8 7 6 6 6 6 6 7 8 7 7 6 5 6
8 11 14 15 14 14 14 15 15 14 14 15 13 13 12 12 12 11 9 7 8 8 7 7 7 7 8 8 8 7 6 5 5
7 10 13 14 14 11 11 11 10 13 13 12 11 12 12 13 12 12 10 9 9 9 8 7 7 7 8 9 8 8 8 8 7
6 8 10 10 11 12 13 12 12 12 10 10 10 10 10 12 11 11 11 11 11 9 9 7 9 7 7 7 7 8 9 10 9
7 8 9 10 11 12 12 12 12 12 10 10 10 10 11 11 11 11 12 12 11 10 10 9 8 8 8 8 7 7 8 9 10
10 10 9 9 8 9 10 11 11 11 10 10 9 10 10 9 10 8 6 7 9 10 9 9 10 10 10 10 9 8 8 9 9
11 11 10 9 9 8 8 9 10 10 9 9 9 9 10 10 7 7 7 5 5 7 8 9 9 10 11 11 9 8 9 8 9
11 10 9 9 8 9 9 10 10 10 11 11 10 10 10 8 8 8 5 6 6 5 6 7 8 10 11 12 10 9 11 10 9
12 11 10 10 10 9 9 10 9 10 9 10 11 10 8 8 8 8 8 7 6 7 7 6 8 9 10 12 12 10 12 12 11
12 11 11 10 9 9 9 9 10 9 9 8 8 8 8 8 8 7 6 7 9 8 8 9 9 9 9 10 9 8 11 12 12
11 9 9 10 9 8 8 10 11 10 8 7 6 6 5 5 5 5 6 7 7 7 8 8 9 9 10 11 11 10 12 9 10
11 11 10 10 11 10 9 8 9 9 8 7 6 6 5 5 5 4 4 4 5 5 6 6 6 8 9 11 13 11 11 10 8
13 13 13 12 11 10 8 8 8 8 7 6 4 4 5 5 4 3 2 3 3 4 5 5 6 7 8 10 10 10 9 10 9
16 15 14 14 11 9 8 8 7 7 6 4 4 4 5 5 4 3 2 4 4 4 5 4 4 4 4 4 6 3 3 5 10
15 16 14 12 11 10 6 6 5 6 3 5 4 5 5 4 3 2 2 3 4 5 4 5 3 3 3 3 2 3 6 6 7
14 14 15 13 12 10 8 5 5 4 3 4 5 6 5 3 3 2 3 3 3 4 5 5 3 2 3 4 4 4 2 2 3
14 15 13 13 12 10 9 7 5 4 4 5 6 5 5 4 3 4 4 4 3 3 2 2 3 2 3 4 6 4 0 3 4
15 15 12 11 10 9 9 7 7 6 5 5 5 5 4 2 2 3 4 5 3 5 4 4 6 5 6 4 9 9 8 8 8
14 13 13 12 11 9 9 7 7 6 5 5 4 3 3 3 3 2 3 4 5 5 5 8 8 7 7 9 14 11 11 9 8
Wind_Direction
198 199 196 192 195 190 184 192 190 189 195 202 198 203 211 214 209 213 221 219 221 224 225 225 203 209 215 224 226 228 219 223 238
192 195 199 195 190 191 186 194 191 182 181 197 201 208 210 209 213 213 221 224 226 230 233 229 222 226 218 220 233 232 232 236 242
189 193 196 197 193 189 190 196 195 188 194 196 200 206 210 211 214 215 225 219 221 230 240 244 251 242 219 217 223 230 234 248 239
192 189 191 189 189 187 184 180 180 192 195 195 198 204 207 215 216 216 222 227 221 225 227 230 236 233 225 218 216 221 223 237 247
186 182 185 186 184 176 178 180 181 187 186 193 203 204 205 215 220 222 218 226 226 221 220 221 240 221 240 245 232 215 227 242 238
166 163 165 172 178 184 186 186 190 200 201 206 204 197 197 202 209 215 223 222 225 223 225 227 230 232 232 241 244 236 229 232 239
155 159 164 168 177 184 190 193 193 201 207 212 204 202 205 209 213 209 219 234 233 230 223 234 237 235 238 235 239 239 236 234 237
146 152 167 171 177 180 186 190 196 207 204 192 192 196 199 205 200 197 189 208 223 237 236 243 239 236 240 241 237 238 235 245 246
151 162 169 165 169 177 181 190 193 195 198 193 189 199 206 199 186 181 184 192 221 235 247 246 246 242 233 238 239 225 214 223 236
167 166 159 165 172 174 178 183 185 191 192 192 200 208 203 195 203 205 194 189 202 219 226 232 235 243 244 238 239 217 217 218 241
170 163 163 156 158 151 150 150 161 166 168 177 184 190 191 189 190 198 201 210 221 234 234 238 240 241 238 243 249 225 224 222 243
173 163 160 154 143 134 133 137 142 147 154 159 169 175 174 175 181 185 188 205 215 223 228 240 240 248 250 246 246 225 236 230 247
154 156 152 151 143 138 142 138 144 139 140 156 167 169 163 158 166 177 194 210 226 231 236 249 246 249 247 251 254 240 236 222 235
163 156 154 148 151 147 148 147 152 145 155 185 174 157 156 165 177 190 235 251 238 262 257 251 252 269 273 261 248 251 224 213 224
159 156 152 159 151 147 155 161 173 165 189 167 178 189 196 187 173 197 238 270 286 276 252 256 267 273 287 285 277 216 160 194 215
158 158 155 156 150 149 157 172 188 199 179 172 188 204 211 188 183 227 267 298 296 279 257 257 251 269 294 302 224 198 183 207 228
155 155 154 154 151 156 160 168 189 217 185 195 197 204 195 183 219 248 257 268 288 281 290 284 290 281 281 298 299 285 198 219 231
156 151 151 157 161 165 151 137 124 143 160 168 175 176 171 189 227 254 264 260 274 247 224 256 280 259 291 292 283 289 130 286 296
152 153 155 156 161 140 123 134 141 134 144 163 166 178 188 202 240 273 272 275 248 208 262 210 217 229 245 271 254 278 282 277 275
152 154 159 154 146 139 149 151 144 150 161 166 182 227 248 260 250 262 277 269 267 283 200 212 220 232 236 242 269 289 279 274 299